Location: *
(34.8620°S, 39.3380°E)
Time: 03:04:39
(UTC+00:00)

Cosmos 1300 - Pass Details

Date: 08 December 2021
Orbit: 509 x 511 km, 82.5° (Epoch: 22 January)

Event Time Altitude Azimuth Distance (km) Brightness Sun altitude
Exits shadow 22:11:03 15° 210° (SSW) 1,464 5.4 -30.8°
Drops below altitude 10° 22:11:59 10° 201° (SSW) 1,759 6.0 -30.8°
Sets 22:14:24 0° 187° (S) 2,655 7.3 -30.6°
